Lubbock, TX

1:48 PM CST on November 13, 2019 (GMT -0600)
Lubbock International

Weather History for KLBB - August, 2019

Change the Weather History Date:

Wednesday, August 7, 2019

  Actual Average Record
Temperature  
Mean Temperature 90 °F 80 °F  
Max Temperature 101 °F 92 °F 104 °F (2003)
Min Temperature 79 °F 68 °F 58 °F (1971)
Degree Days  
Heating Degree Days 0 0  
Month to date heating degree days 0 0  
Since 1 June heating degree days 0 2  
Since 1 July heating degree days 0 0  
Cooling Degree Days 25 15  
Month to date cooling degree days 143 105  
Year to date cooling degree days 1250 1198  
Since 1 June cooling degree days 1040 952  
Growing Degree Days 40 (Base 50)    
Moisture  
Dew Point 59 °F    
Average Humidity 39    
Maximum Humidity 54    
Minimum Humidity 24    
Precipitation  
Precipitation 0.00 in 0.06 in 2.23 in (1925)
Month to date precipitation 0.13 0.43  
Year to date precipitation 13.58 11.59  
Snow  
Snow 0.00 in 0.00 in 0.00 in (2002)
Month to date snowfall 0.0 0.0  
Since 1 June snowfall 0.0 0.0  
Since 1 July snowfall 0.0 0.0  
Snow Depth 0.00 in    
Sea Level Pressure  
Sea Level Pressure 29.80 in    
Wind  
Wind Speed 12 mph (South)    
Max Wind Speed 21 mph    
Max Gust Speed 26 mph    
Visibility 10 miles    
Events      
T = Trace of Precipitation, MM = Missing Value Source: NWS Daily Summary

Daily Weather History Graph

Daily Weather History Graph

Search for Another Location

Airport or City:

Astronomy

Aug. 07, 2019 Rise Set
Actual Time 7:03 AM CDT 8:42 PM CDT
Civil Twilight 6:36 AM CDT 9:08 PM CDT
Nautical Twilight 6:04 AM CDT 9:41 PM CDT
Astronomical Twilight 5:30 AM CDT 10:15 PM CDT
Moon 2:16 PM CDT (8/7) 12:48 AM CDT (8/7)
Length of Visible Light 14h 32m
Length of Day
13h 38m
Waxing Crescent, 50% of the Moon is Illuminated
Aug 7
Waxing Crescent
Aug 7
First Quarter
Aug 15
Full
Aug 23
Last Quarter
Aug 30
New

Hourly Weather History & Observations

Time (CDT) Temp. Heat Index Dew Point Humidity Pressure Visibility Wind Dir Wind Speed Gust Speed Precip Events Conditions
12:53 AM 82.9 °F 82.6 °F 57.9 °F 42% 29.85 in 10.0 mi South 11.5 mph - N/A   Mostly Cloudy
1:53 AM 82.9 °F 82.8 °F 59.0 °F 44% 29.84 in 10.0 mi South 8.1 mph - N/A   Mostly Cloudy
2:53 AM 82.0 °F 82.1 °F 59.0 °F 45% 29.83 in 10.0 mi South 10.4 mph - N/A   Scattered Clouds
3:53 AM 80.1 °F 80.9 °F 60.1 °F 50% 29.82 in 10.0 mi South 10.4 mph - N/A   Scattered Clouds
4:53 AM 81.0 °F 81.6 °F 60.1 °F 49% 29.81 in 10.0 mi SSW 11.5 mph - N/A   Partly Cloudy
5:53 AM 80.1 °F 80.9 °F 60.1 °F 50% 29.82 in 10.0 mi SSW 9.2 mph - N/A   Partly Cloudy
6:53 AM 79.0 °F - 60.1 °F 52% 29.83 in 10.0 mi SSW 11.5 mph - N/A   Scattered Clouds
7:53 AM 79.0 °F - 61.0 °F 54% 29.84 in 10.0 mi SW 10.4 mph - N/A   Partly Cloudy
8:53 AM 82.9 °F 83.3 °F 61.0 °F 47% 29.85 in 10.0 mi SW 13.8 mph - N/A   Partly Cloudy
9:53 AM 86.0 °F 86.1 °F 61.0 °F 43% 29.85 in 10.0 mi SW 17.3 mph - N/A   Partly Cloudy
10:53 AM 90.0 °F 90.3 °F 62.1 °F 39% 29.85 in 10.0 mi SW 13.8 mph - N/A   Partly Cloudy
11:53 AM 93.0 °F 93.8 °F 62.1 °F 36% 29.84 in 10.0 mi SW 15.0 mph - N/A   Mostly Cloudy
12:53 PM 96.1 °F 96.4 °F 61.0 °F 31% 29.83 in 10.0 mi SSW 11.5 mph - N/A   Mostly Cloudy
1:53 PM 98.1 °F 97.7 °F 59.0 °F 27% 29.80 in 10.0 mi South 12.7 mph - N/A   Partly Cloudy
2:53 PM 100.9 °F 100.5 °F 57.9 °F 24% 29.77 in 10.0 mi South 11.5 mph - N/A   Scattered Clouds
3:53 PM 100.0 °F 99.7 °F 57.9 °F 25% 29.75 in 10.0 mi South 13.8 mph 23.0 mph N/A   Mostly Cloudy
4:53 PM 100.0 °F 99.7 °F 57.9 °F 25% 29.74 in 10.0 mi South 13.8 mph - N/A   Mostly Cloudy
5:53 PM 97.0 °F 95.7 °F 57.0 °F 26% 29.73 in 10.0 mi SSE 13.8 mph - N/A   Mostly Cloudy
6:53 PM 97.0 °F 95.7 °F 57.0 °F 26% 29.72 in 10.0 mi South 13.8 mph - N/A   Mostly Cloudy
7:53 PM 96.1 °F 94.5 °F 55.9 °F 26% 29.72 in 10.0 mi SSE 10.4 mph - N/A   Mostly Cloudy
8:53 PM 90.0 °F 88.6 °F 57.0 °F 33% 29.73 in 10.0 mi SSE 8.1 mph - N/A   Mostly Cloudy
9:53 PM 87.1 °F 86.7 °F 60.1 °F 40% 29.77 in 10.0 mi ESE 13.8 mph - N/A   Overcast
10:53 PM 84.9 °F 85.4 °F 62.1 °F 46% 29.76 in 10.0 mi SE 17.3 mph - N/A   Mostly Cloudy
11:53 PM 82.0 °F 83.1 °F 63.0 °F 52% 29.79 in 10.0 mi ESE 6.9 mph - N/A   Mostly Cloudy